• In Latvia
  • List of Countries
  • For 7 days
  • Water Temperature
  • Satellite Maps
  • Weather Map
  • Weather Widgets
  • user-avatar
    Login

    Hourly Weather Sumgayit

    Today, 28 June, Wednesday

    Time Temperature Precipitation Wind Pressure Humidity
    00:00 +25°C° 0 mm 2 mps 737 mmHg 66%
    01:00 +25°C° 0 mm 2 mps 737 mmHg 67%
    02:00 +24°C° 0 mm 2 mps 737 mmHg 68%
    03:00 +24°C° 0 mm 2 mps 737 mmHg 68%
    04:00 +25°C° 0 mm 3 mps 737 mmHg 66%
    05:00 +25°C° 0 mm 3 mps 737 mmHg 64%
    06:00 +26°C° 0 mm 3 mps 737 mmHg 63%
    07:00 +27°C° 0 mm 3 mps 737 mmHg 57%
    08:00 +29°C° 0 mm 3 mps 737 mmHg 51%
    09:00 +30°C° 0 mm 4 mps 737 mmHg 45%
    10:00 +32°C° 0 mm 4 mps 737 mmHg 41%
    11:00 +33°C° 0 mm 5 mps 737 mmHg 38%
    12:00 +34°C° 0 mm 5 mps 737 mmHg 34%
    13:00 +34°C° 0 mm 5 mps 737 mmHg 33%
    14:00 +34°C° 0 mm 6 mps 736 mmHg 32%
    15:00 +35°C° 0 mm 6 mps 736 mmHg 31%
    16:00 +34°C° 0 mm 5 mps 736 mmHg 31%
    17:00 +33°C° 0 mm 5 mps 736 mmHg 31%
    18:00 +32°C° 0 mm 4 mps 735 mmHg 31%
    19:00 +30°C° 0 mm 3 mps 735 mmHg 33%
    20:00 +29°C° 0 mm 3 mps 736 mmHg 34%
    21:00 +28°C° 0 mm 2 mps 736 mmHg 36%
    22:00 +28°C° 0 mm 2 mps 736 mmHg 35%
    23:00 +28°C° 0 mm 2 mps 736 mmHg 35%

    Tomorrow, 29 June, Thursday

    Time Temperature Precipitation Wind Pressure Humidity
    00:00 +27°C° 0 mm 2 mps 736 mmHg 34%
    01:00 +27°C° 0 mm 2 mps 735 mmHg 36%
    02:00 +27°C° 0 mm 2 mps 735 mmHg 37%
    03:00 +26°C° 0 mm 2 mps 735 mmHg 38%
    04:00 +27°C° 0 mm 3 mps 735 mmHg 37%
    05:00 +27°C° 0 mm 3 mps 735 mmHg 37%
    06:00 +28°C° 0 mm 3 mps 735 mmHg 36%
    07:00 +29°C° 0.1 mm 4 mps 736 mmHg 33%
    08:00 +32°C° 0.1 mm 4 mps 736 mmHg 29%
    09:00 +33°C° 0.1 mm 4 mps 736 mmHg 26%
    10:00 +34°C° 0 mm 4 mps 736 mmHg 24%
    11:00 +35°C° 0 mm 5 mps 736 mmHg 22%
    12:00 +36°C° 0 mm 5 mps 736 mmHg 21%
    13:00 +36°C° 0 mm 5 mps 735 mmHg 20%
    14:00 +36°C° 0 mm 6 mps 735 mmHg 19%
    15:00 +36°C° 0 mm 6 mps 735 mmHg 19%
    16:00 +35°C° 0 mm 6 mps 734 mmHg 20%
    17:00 +34°C° 0 mm 6 mps 734 mmHg 21%
    18:00 +33°C° 0 mm 6 mps 734 mmHg 23%
    19:00 +32°C° 0 mm 7 mps 734 mmHg 25%
    20:00 +30°C° 0 mm 7 mps 735 mmHg 27%
    21:00 +29°C° 0 mm 7 mps 735 mmHg 30%
    22:00 +28°C° 0 mm 7 mps 735 mmHg 30%
    23:00 +28°C° 0 mm 7 mps 735 mmHg 31%

    Day after tomorrow, 30 June, Friday

    Time Temperature Precipitation Wind Pressure Humidity
    00:00 +28°C° 0 mm 7 mps 735 mmHg 31%
    01:00 +27°C° 0 mm 7 mps 735 mmHg 32%
    02:00 +27°C° 0 mm 7 mps 734 mmHg 34%
    03:00 +27°C° 0 mm 7 mps 734 mmHg 35%
    04:00 +27°C° 0 mm 7 mps 734 mmHg 35%
    05:00 +28°C° 0 mm 8 mps 735 mmHg 34%
    06:00 +28°C° 0 mm 8 mps 735 mmHg 34%
    07:00 +29°C° 0 mm 8 mps 735 mmHg 32%
    08:00 +32°C° 0 mm 9 mps 735 mmHg 29%
    09:00 +33°C° 0 mm 10 mps 736 mmHg 27%
    10:00 +34°C° 0 mm 10 mps 736 mmHg 27%
    11:00 +34°C° 0 mm 10 mps 736 mmHg 28%
    12:00 +36°C° 0 mm 10 mps 736 mmHg 28%
    13:00 +34°C° 0 mm 11 mps 735 mmHg 30%
    14:00 +34°C° 0 mm 11 mps 735 mmHg 32%
    15:00 +34°C° 0 mm 11 mps 735 mmHg 33%
    16:00 +33°C° 0 mm 11 mps 735 mmHg 34%
    17:00 +32°C° 0 mm 11 mps 735 mmHg 35%
    18:00 +31°C° 0 mm 11 mps 735 mmHg 36%
    19:00 +31°C° 0 mm 11 mps 735 mmHg 36%
    20:00 +29°C° 0 mm 10 mps 736 mmHg 37%
    21:00 +29°C° 0 mm 10 mps 736 mmHg 37%
    22:00 +28°C° 0 mm 11 mps 736 mmHg 36%
    23:00 +28°C° 0 mm 11 mps 736 mmHg 35%

    1 July, Saturday

    Time Temperature Precipitation Wind Pressure Humidity
    00:00 +28°C° 0 mm 11 mps 736 mmHg 34%
    01:00 +28°C° 0 mm 11 mps 736 mmHg 34%
    02:00 +28°C° 0 mm 11 mps 736 mmHg 34%
    03:00 +28°C° 0 mm 10 mps 736 mmHg 34%
    04:00 +28°C° 0 mm 10 mps 737 mmHg 33%
    05:00 +28°C° 0 mm 10 mps 737 mmHg 33%
    06:00 +29°C° 0 mm 10 mps 737 mmHg 32%
    07:00 +31°C° 0 mm 10 mps 737 mmHg 31%
    08:00 +32°C° 0 mm 10 mps 738 mmHg 30%
    09:00 +33°C° 0 mm 11 mps 738 mmHg 28%
    10:00 +34°C° 0 mm 10 mps 738 mmHg 28%
    11:00 +34°C° 0 mm 10 mps 738 mmHg 28%
    12:00 +36°C° 0 mm 10 mps 738 mmHg 27%
    13:00 +35°C° 0 mm 9 mps 738 mmHg 27%
    14:00 +35°C° 0 mm 9 mps 738 mmHg 27%
    15:00 +35°C° 0 mm 9 mps 738 mmHg 28%
    16:00 +34°C° 0 mm 8 mps 738 mmHg 28%
    17:00 +34°C° 0 mm 8 mps 738 mmHg 29%
    18:00 +33°C° 0 mm 7 mps 738 mmHg 30%
    19:00 +32°C° 0 mm 6 mps 738 mmHg 32%
    20:00 +30°C° 0 mm 6 mps 738 mmHg 34%
    21:00 +29°C° 0 mm 5 mps 738 mmHg 35%
    22:00 +29°C° 0 mm 5 mps 738 mmHg 36%
    23:00 +28°C° 0 mm 5 mps 738 mmHg 36%

    2 July, Sunday

    Time Temperature Precipitation Wind Pressure Humidity
    00:00 +28°C° 0 mm 4 mps 738 mmHg 37%
    01:00 +27°C° 0 mm 4 mps 738 mmHg 38%
    02:00 +27°C° 0 mm 4 mps 738 mmHg 39%
    03:00 +27°C° 0 mm 4 mps 737 mmHg 40%
    04:00 +27°C° 0 mm 4 mps 738 mmHg 39%
    05:00 +28°C° 0 mm 4 mps 738 mmHg 38%
    06:00 +29°C° 0 mm 3 mps 738 mmHg 36%
    07:00 +30°C° 0 mm 3 mps 738 mmHg 33%
    08:00 +33°C° 0 mm 3 mps 738 mmHg 30%
    09:00 +35°C° 0 mm 3 mps 738 mmHg 26%
    10:00 +36°C° 0 mm 4 mps 738 mmHg 24%
    11:00 +37°C° 0 mm 4 mps 738 mmHg 22%
    12:00 +38°C° 0 mm 4 mps 737 mmHg 20%
    13:00 +38°C° 0 mm 4 mps 737 mmHg 20%
    14:00 +39°C° 0 mm 5 mps 737 mmHg 19%
    15:00 +39°C° 0 mm 5 mps 736 mmHg 19%
    16:00 +37°C° 0 mm 5 mps 736 mmHg 21%
    17:00 +36°C° 0 mm 4 mps 736 mmHg 22%
    18:00 +35°C° 0 mm 4 mps 736 mmHg 24%
    19:00 +34°C° 0 mm 3 mps 736 mmHg 28%
    20:00 +31°C° 0 mm 2 mps 736 mmHg 31%
    21:00 +30°C° 0 mm 2 mps 736 mmHg 35%
    22:00 +29°C° 0 mm 2 mps 736 mmHg 36%
    23:00 +29°C° 0 mm 2 mps 735 mmHg 36%

    3 July, Monday

    Time Temperature Precipitation Wind Pressure Humidity
    00:00 +28°C° 0 mm 2 mps 735 mmHg 37%
    01:00 +28°C° 0 mm 2 mps 735 mmHg 38%
    02:00 +28°C° 0 mm 2 mps 735 mmHg 39%
    03:00 +27°C° 0 mm 2 mps 735 mmHg 39%
    04:00 +28°C° 0 mm 2 mps 735 mmHg 39%
    05:00 +29°C° 0 mm 2 mps 735 mmHg 38%
    06:00 +29°C° 0 mm 2 mps 735 mmHg 38%
    07:00 +31°C° 0 mm 2 mps 735 mmHg 34%
    08:00 +34°C° 0 mm 3 mps 735 mmHg 31%
    09:00 +35°C° 0 mm 4 mps 735 mmHg 28%
    10:00 +36°C° 0 mm 4 mps 735 mmHg 26%
    11:00 +37°C° 0 mm 5 mps 734 mmHg 25%
    12:00 +39°C° 0 mm 5 mps 734 mmHg 23%
    13:00 +39°C° 0 mm 5 mps 734 mmHg 23%
    14:00 +39°C° 0 mm 6 mps 733 mmHg 23%
    15:00 +39°C° 0 mm 6 mps 733 mmHg 22%
    16:00 +38°C° 0 mm 6 mps 733 mmHg 24%
    17:00 +36°C° 0 mm 5 mps 732 mmHg 26%
    18:00 +35°C° 0 mm 5 mps 732 mmHg 27%
    19:00 +34°C° 0 mm 4 mps 732 mmHg 31%
    20:00 +33°C° 0 mm 3 mps 732 mmHg 34%
    21:00 +30°C° 0 mm 2 mps 732 mmHg 37%
    22:00 +30°C° 0 mm 2 mps 732 mmHg 37%
    23:00 +30°C° 0 mm 2 mps 732 mmHg 37%
    Show more